Location: ?
(35.4554°N, 139.3092°E)
Time: 21:34:17
(UTC+00:00)

CZ-2C R/B - Pass Details

Date: 21 April 2021
Orbit: 501 x 566 km, 97.7° (Epoch: 10 May)

Event Time Altitude Azimuth Distance (km) Brightness Sun altitude
Rises 18:00:04 0° 21° (NNE) 2,651 7.2 -23.2°
Reaches altitude 10° 18:02:16 10° 30° (NNE) 1,769 6.3 -22.8°
Maximum altitude 18:05:50 38° 99° (E) 828 4.0 -22.2°
Enters shadow 18:07:43 23° 152° (SSE) 1,173 4.4 -21.9°
